TAM440 SBSP-SBRJ

Flight info

Callsign TAM440
Flight time 0h 37m
Altitude 25000
Route NIBRU UZ171 KEVUN
Aircraft A320/M-SDE3FGHIRWY/LB1

Departure

Time 2026-05-05 03:21
Airport Congonhas–Deputado Freitas Nobre Airport (SBSP)

Arrival

Time 2026-05-05 03:58
Airport Santos Dumont Airport (SBRJ)
Time Latitude Longitude Altitude Speed Heading
2026-05-05 03:05 -23.62600 -46.65906 2601 ft 0 kts 237°
2026-05-05 03:13 -23.62596 -46.65899 2601 ft 4 kts 237°
2026-05-05 03:13 -23.62583 -46.65874 2601 ft 4 kts 261°
2026-05-05 03:13 -23.62586 -46.65856 2601 ft 1 kts 327°
2026-05-05 03:14 -23.62587 -46.65856 2601 ft 0 kts 327°
2026-05-05 03:16 -23.62583 -46.65858 2601 ft 3 kts 330°
2026-05-05 03:17 -23.62545 -46.65859 2601 ft 8 kts
2026-05-05 03:17 -23.62477 -46.65885 2601 ft 14 kts 327°
2026-05-05 03:17 -23.62378 -46.65954 2600 ft 20 kts 327°
2026-05-05 03:17 -23.62257 -46.66037 2600 ft 19 kts 330°
2026-05-05 03:18 -23.62148 -46.66106 2599 ft 19 kts 326°
2026-05-05 03:18 -23.62053 -46.66126 2599 ft 13 kts 37°
2026-05-05 03:18 -23.62061 -46.66066 2589 ft 7 kts 149°
2026-05-05 03:18 -23.62073 -46.66058 2596 ft 0 kts 149°
2026-05-05 03:20 -23.62137 -46.66016 2594 ft 45 kts 149°
2026-05-05 03:20 -23.62662 -46.65651 2606 ft 129 kts 147°
2026-05-05 03:21 -23.63527 -46.65046 3068 ft 146 kts 146°
2026-05-05 03:21 -23.63912 -46.64775 3385 ft 149 kts 146°
2026-05-05 03:21 -23.64676 -46.63977 3888 ft 159 kts 114°
2026-05-05 03:21 -23.65134 -46.62823 4113 ft 174 kts 114°
2026-05-05 03:22 -23.65750 -46.61553 4205 ft 206 kts 118°
2026-05-05 03:22 -23.66500 -46.60103 4468 ft 230 kts 118°
2026-05-05 03:22 -23.67306 -46.58562 4871 ft 242 kts 119°
2026-05-05 03:22 -23.68181 -46.56875 5215 ft 267 kts 119°
2026-05-05 03:23 -23.69124 -46.55053 5823 ft 281 kts 120°
2026-05-05 03:23 -23.70088 -46.53181 6654 ft 287 kts 120°
2026-05-05 03:23 -23.71051 -46.51254 7432 ft 292 kts 115°
2026-05-05 03:23 -23.71664 -46.49117 8245 ft 297 kts 99°
2026-05-05 03:24 -23.71743 -46.46854 9084 ft 301 kts 84°
2026-05-05 03:24 -23.71429 -46.44583 9968 ft 304 kts 81°
2026-05-05 03:24 -23.71097 -46.42282 10536 ft 316 kts 81°
2026-05-05 03:24 -23.70747 -46.39820 10769 ft 339 kts 81°
2026-05-05 03:25 -23.70378 -46.37229 11252 ft 350 kts 81°
2026-05-05 03:25 -23.70003 -46.34583 11916 ft 355 kts 82°
2026-05-05 03:25 -23.69622 -46.31903 12604 ft 359 kts 82°
2026-05-05 03:25 -23.69234 -46.29198 13315 ft 363 kts 82°
2026-05-05 03:26 -23.68839 -46.26460 14005 ft 368 kts 82°
2026-05-05 03:26 -23.68440 -46.23692 14604 ft 371 kts 82°
2026-05-05 03:26 -23.68039 -46.20893 15194 ft 375 kts 82°
2026-05-05 03:26 -23.67636 -46.18070 15771 ft 379 kts 82°
2026-05-05 03:27 -23.67227 -46.15208 16362 ft 383 kts 82°
2026-05-05 03:27 -23.66818 -46.12323 16936 ft 387 kts 82°
2026-05-05 03:27 -23.66405 -46.09411 17508 ft 391 kts 82°
2026-05-05 03:27 -23.65985 -46.06466 18087 ft 394 kts 82°
2026-05-05 03:28 -23.65557 -46.03499 18640 ft 398 kts 82°
2026-05-05 03:28 -23.65120 -46.00500 19143 ft 402 kts 82°
2026-05-05 03:28 -23.64679 -45.97478 19665 ft 405 kts 82°
2026-05-05 03:28 -23.64239 -45.94429 20195 ft 409 kts 82°
2026-05-05 03:29 -23.63946 -45.92393 20559 ft 412 kts 82°
2026-05-05 03:29 -23.63498 -45.89284 21107 ft 415 kts 82°
2026-05-05 03:29 -23.63050 -45.86164 21641 ft 419 kts 82°
2026-05-05 03:29 -23.62595 -45.83006 22171 ft 423 kts 82°
2026-05-05 03:30 -23.62134 -45.79823 22698 ft 427 kts 82°
2026-05-05 03:30 -23.61667 -45.76614 23231 ft 430 kts 82°
2026-05-05 03:30 -23.61193 -45.73375 23713 ft 435 kts 82°
2026-05-05 03:30 -23.60714 -45.70105 24143 ft 439 kts 82°
2026-05-05 03:31 -23.60231 -45.66805 24526 ft 442 kts 82°
2026-05-05 03:31 -23.59745 -45.63486 24924 ft 445 kts 83°
2026-05-05 03:31 -23.59256 -45.60140 25141 ft 448 kts 82°
2026-05-05 03:31 -23.58772 -45.56844 25195 ft 443 kts 82°
2026-05-05 03:32 -23.58285 -45.53533 25204 ft 440 kts 82°
2026-05-05 03:32 -23.57801 -45.50240 25206 ft 440 kts 82°
2026-05-05 03:32 -23.57314 -45.46945 25203 ft 439 kts 82°
2026-05-05 03:32 -23.56751 -45.43671 25204 ft 440 kts 79°
2026-05-05 03:33 -23.56092 -45.40416 25203 ft 440 kts 78°
2026-05-05 03:33 -23.55373 -45.37173 25210 ft 440 kts 77°
2026-05-05 03:33 -23.54635 -45.33938 25206 ft 440 kts 77°
2026-05-05 03:33 -23.53902 -45.30708 25209 ft 439 kts 77°
2026-05-05 03:34 -23.53183 -45.27464 25209 ft 440 kts 77°
2026-05-05 03:34 -23.52480 -45.24219 25211 ft 440 kts 78°
2026-05-05 03:34 -23.51792 -45.20979 25122 ft 436 kts 78°
2026-05-05 03:34 -23.51119 -45.17783 24874 ft 428 kts 78°
2026-05-05 03:35 -23.50456 -45.14646 24646 ft 422 kts 78°
2026-05-05 03:35 -23.49798 -45.11543 24420 ft 419 kts 78°
2026-05-05 03:35 -23.49140 -45.08461 24194 ft 417 kts 78°
2026-05-05 03:35 -23.48483 -45.05390 23967 ft 415 kts 78°
2026-05-05 03:36 -23.47829 -45.02340 23731 ft 413 kts 78°
2026-05-05 03:36 -23.47177 -44.99295 23477 ft 412 kts 78°
2026-05-05 03:36 -23.46529 -44.96270 23217 ft 409 kts 78°
2026-05-05 03:36 -23.45882 -44.93259 22960 ft 408 kts 78°
2026-05-05 03:37 -23.45226 -44.90253 22697 ft 407 kts 77°
2026-05-05 03:37 -23.44566 -44.87263 22439 ft 405 kts 77°
2026-05-05 03:37 -23.43901 -44.84284 22172 ft 404 kts 77°
2026-05-05 03:37 -23.43238 -44.81328 21918 ft 401 kts 77°
2026-05-05 03:38 -23.42574 -44.78378 21682 ft 400 kts 77°
2026-05-05 03:38 -23.41917 -44.75449 21426 ft 397 kts 77°
2026-05-05 03:38 -23.41264 -44.72534 21176 ft 395 kts 77°
2026-05-05 03:38 -23.40625 -44.69669 20938 ft 394 kts 77°
2026-05-05 03:39 -23.39981 -44.66775 20691 ft 392 kts 77°
2026-05-05 03:39 -23.39339 -44.63897 20456 ft 390 kts 77°
2026-05-05 03:39 -23.38700 -44.61037 20221 ft 389 kts 77°
2026-05-05 03:39 -23.38062 -44.58177 19986 ft 388 kts 77°
2026-05-05 03:40 -23.37426 -44.55330 19721 ft 384 kts 77°
2026-05-05 03:40 -23.36795 -44.52521 19278 ft 382 kts 77°
2026-05-05 03:40 -23.36161 -44.49716 18810 ft 381 kts 76°
2026-05-05 03:40 -23.35530 -44.46919 18331 ft 380 kts 76°
2026-05-05 03:41 -23.34901 -44.44133 17829 ft 378 kts 76°
2026-05-05 03:41 -23.34118 -44.41416 17365 ft 375 kts 66°
2026-05-05 03:41 -23.33025 -44.38840 16899 ft 373 kts 64°
2026-05-05 03:41 -23.31953 -44.36326 16437 ft 370 kts 65°
2026-05-05 03:42 -23.30870 -44.33799 15973 ft 368 kts 64°
2026-05-05 03:42 -23.29786 -44.31285 15513 ft 367 kts 64°
2026-05-05 03:42 -23.28706 -44.28781 15053 ft 365 kts 64°
2026-05-05 03:42 -23.27627 -44.26283 14590 ft 364 kts 64°
2026-05-05 03:43 -23.26557 -44.23801 14131 ft 362 kts 64°
2026-05-05 03:43 -23.25506 -44.21353 13646 ft 352 kts 65°
2026-05-05 03:43 -23.24488 -44.18977 13202 ft 341 kts 65°
2026-05-05 03:43 -23.23496 -44.16670 12765 ft 333 kts 65°
2026-05-05 03:44 -23.22522 -44.14413 12347 ft 325 kts 64°
2026-05-05 03:44 -23.21566 -44.12201 11941 ft 323 kts 64°
2026-05-05 03:44 -23.20609 -44.09991 11534 ft 323 kts 64°
2026-05-05 03:44 -23.19648 -44.07771 11117 ft 324 kts 64°
2026-05-05 03:45 -23.18659 -44.05566 10949 ft 328 kts 63°
2026-05-05 03:45 -23.17631 -44.03331 10768 ft 332 kts 63°
2026-05-05 03:45 -23.16592 -44.01092 10583 ft 331 kts 62°
2026-05-05 03:45 -23.15559 -43.98859 10372 ft 328 kts 63°
2026-05-05 03:46 -23.14585 -43.96664 10233 ft 318 kts 64°
2026-05-05 03:46 -23.13657 -43.94508 10006 ft 312 kts 64°
2026-05-05 03:46 -23.12760 -43.92390 9908 ft 307 kts 65°
2026-05-05 03:46 -23.11874 -43.90289 9775 ft 305 kts 65°
2026-05-05 03:47 -23.11002 -43.88228 9615 ft 303 kts 65°
2026-05-05 03:47 -23.10120 -43.86151 9455 ft 303 kts 65°
2026-05-05 03:47 -23.09235 -43.84070 9297 ft 303 kts 65°
2026-05-05 03:47 -23.08349 -43.81994 9130 ft 302 kts 65°
2026-05-05 03:48 -23.07461 -43.79922 8970 ft 303 kts 65°
2026-05-05 03:48 -23.06573 -43.77849 8809 ft 303 kts 65°
2026-05-05 03:48 -23.05688 -43.75783 8636 ft 300 kts 65°
2026-05-05 03:48 -23.04807 -43.73727 8486 ft 301 kts 65°
2026-05-05 03:49 -23.03923 -43.71668 8320 ft 300 kts 65°
2026-05-05 03:49 -23.03043 -43.69617 8162 ft 298 kts 65°
2026-05-05 03:49 -23.02159 -43.67580 7874 ft 298 kts 64°
2026-05-05 03:49 -23.01272 -43.65556 7599 ft 296 kts 64°
2026-05-05 03:50 -23.00389 -43.63548 7322 ft 294 kts 65°
2026-05-05 03:50 -22.99508 -43.61554 7041 ft 292 kts 65°
2026-05-05 03:50 -22.98633 -43.59567 6780 ft 290 kts 65°
2026-05-05 03:50 -22.97768 -43.57608 6591 ft 287 kts 65°
2026-05-05 03:51 -22.96903 -43.55650 6414 ft 288 kts 65°
2026-05-05 03:51 -22.96039 -43.53692 6249 ft 287 kts 65°
2026-05-05 03:51 -22.95184 -43.51748 6105 ft 284 kts 65°
2026-05-05 03:51 -22.94337 -43.49809 6006 ft 284 kts 65°
2026-05-05 03:52 -22.93509 -43.47858 5999 ft 285 kts 65°
2026-05-05 03:52 -22.92687 -43.45901 5607 ft 286 kts 65°
2026-05-05 03:52 -22.91863 -43.43941 5277 ft 284 kts 65°
2026-05-05 03:52 -22.91042 -43.41995 4978 ft 283 kts 64°
2026-05-05 03:53 -22.90240 -43.40101 4757 ft 266 kts 64°
2026-05-05 03:53 -22.89499 -43.38346 4580 ft 247 kts 64°
2026-05-05 03:53 -22.88799 -43.36685 4213 ft 239 kts 65°
2026-05-05 03:53 -22.88343 -43.34963 3784 ft 237 kts 83°
2026-05-05 03:54 -22.88335 -43.33187 3386 ft 234 kts 90°
2026-05-05 03:54 -22.88395 -43.31465 3076 ft 225 kts 89°
2026-05-05 03:54 -22.88453 -43.29776 2809 ft 223 kts 90°
2026-05-05 03:54 -22.88511 -43.28106 2527 ft 221 kts 90°
2026-05-05 03:55 -22.88611 -43.26468 2359 ft 215 kts 101°
2026-05-05 03:55 -22.89107 -43.24974 2268 ft 206 kts 111°
2026-05-05 03:55 -22.89636 -43.23571 2138 ft 195 kts 110°
2026-05-05 03:55 -22.90128 -43.22245 1963 ft 187 kts 110°
2026-05-05 03:56 -22.90639 -43.20964 1737 ft 181 kts 121°
2026-05-05 03:56 -22.91490 -43.20015 1502 ft 173 kts 146°
2026-05-05 03:56 -22.92579 -43.19491 1303 ft 173 kts 164°
2026-05-05 03:56 -22.93750 -43.19213 1079 ft 168 kts 154°
2026-05-05 03:57 -22.94526 -43.18429 886 ft 146 kts 111°
2026-05-05 03:57 -22.94636 -43.17400 704 ft 134 kts 74°
2026-05-05 03:57 -22.94168 -43.16559 532 ft 133 kts 41°
2026-05-05 03:57 -22.93316 -43.16197 323 ft 137 kts
2026-05-05 03:58 -22.92359 -43.16204 167 ft 138 kts 359°
2026-05-05 03:58 -22.91398 -43.16263 26 ft 134 kts 357°
2026-05-05 03:58 -22.90845 -43.16294 24 ft 27 kts 355°
2026-05-05 03:58 -22.90805 -43.16343 25 ft 9 kts 266°
2026-05-05 03:59 -22.90808 -43.16400 25 ft 0 kts 266°
2026-05-05 03:59 -22.90810 -43.16420 24 ft 6 kts 266°
2026-05-05 03:59 -22.90813 -43.16480 22 ft 8 kts 266°
2026-05-05 03:59 -22.90821 -43.16538 24 ft 8 kts 242°
2026-05-05 04:00 -22.90879 -43.16549 22 ft 10 kts 175°
2026-05-05 04:00 -22.90959 -43.16543 22 ft 12 kts 176°
2026-05-05 04:00 -22.91041 -43.16537 22 ft 11 kts 175°
2026-05-05 04:00 -22.91109 -43.16525 25 ft 7 kts 167°
2026-05-05 04:01 -22.91122 -43.16524 24 ft 2 kts 175°
2026-05-05 04:01 -22.91134 -43.16536 23 ft 3 kts 244°
2026-05-05 04:01 -22.91135 -43.16564 22 ft 3 kts 267°
2026-05-05 04:01 -22.91136 -43.16586 22 ft 1 kts 268°
2026-05-05 04:02 -22.91136 -43.16589 22 ft 0 kts 268°